This is the latest recevied weather packets stored in our database for station/object K5OLV. If no packets are shown the sender has not sent any weather packets the latest 10 day(s).
| Time | Temp. | Humidity | Pressure | Rain* | Wind** | Luminosity | Snow |
|---|---|---|---|---|---|---|---|
| 1777129742 | 16.67° C | 99% | 1008.4 hPa | 0 mm | - | 102 W/m² | - |
| 1777129436 | 16.67° C | 99% | 1008.3 hPa | 0 mm | - | 133 W/m² | - |
| 1777129136 | 16.67° C | 99% | 1008.1 hPa | 0 mm | - | 207 W/m² | - |
| 1777128831 | 16.67° C | 99% | 1007.8 hPa | 0 mm | - | 197 W/m² | - |
| 1777128529 | 16.11° C | 99% | 1007.8 hPa | 0 mm | - | 205 W/m² | - |
| 1777128225 | 16.11° C | 99% | 1008 hPa | 0 mm | - | 113 W/m² | - |
| 1777127924 | 16.11° C | 99% | 1008.1 hPa | 0 mm | - | 54 W/m² | - |
| 1777127621 | 16.11° C | 99% | 1007.8 hPa | 0 mm | - | 104 W/m² | - |
| 1777127318 | 15.56° C | 99% | 1008.2 hPa | 0 mm | - | 52 W/m² | - |
| 1777127013 | 16.11° C | 99% | 1007.7 hPa | 1.27 mm | - | 91 W/m² | - |
| 1777126709 | 16.11° C | 99% | 1007.7 hPa | 1.27 mm | - | 76 W/m² | - |
| 1777126406 | 16.11° C | 99% | 1007.6 hPa | 0 mm | - | 40 W/m² | - |
| 1777126101 | 16.67° C | 99% | 1007.4 hPa | 0 mm | - | 111 W/m² | - |
| 1777125798 | 16.67° C | 99% | 1007.2 hPa | 0 mm | - | 87 W/m² | - |
| 1777125494 | 16.67° C | 99% | 1007.5 hPa | 0 mm | - | 76 W/m² | - |
| 1777125189 | 16.67° C | 99% | 1007.7 hPa | 0 mm | - | 72 W/m² | - |
| 1777124884 | 16.67° C | 99% | 1007.6 hPa | 0 mm | - | 72 W/m² | - |
| 1777124581 | 16.11° C | 99% | 1008.3 hPa | 0 mm | - | 77 W/m² | - |
| 1777124277 | 16.11° C | 99% | 1008.1 hPa | 0 mm | - | 78 W/m² | - |
| 1777123974 | 16.11° C | 99% | 1008.1 hPa | 0 mm | - | 85 W/m² | - |
| 1777123670 | 16.11° C | 99% | 1008.4 hPa | 0 mm | - | 58 W/m² | - |
| 1777123367 | 16.11° C | 99% | 1008.5 hPa | 0 mm | - | 58 W/m² | - |
| 1777123063 | 16.11° C | 99% | 1008.5 hPa | 1.78 mm | - | 49 W/m² | - |
| 1777122759 | 15.56° C | 99% | 1008.4 hPa | 3.05 mm | - | 46 W/m² | - |
| 1777122456 | 15.56° C | 99% | 1008.3 hPa | 1.27 mm | - | 37 W/m² | - |
* Rain latest hour (hover to see other rain measurements)
** Current wind speed in m/s (hover to see current wind gust speed)